Stations météo

réclame
Mon MeteoGroup
Charleroi/Gosselies, Belgique (6449): Température de l'air & dewpoint: 20.05.2018 23:00:00 - 26.05.2018 23:00:00 (CEST)Charleroi/Gosselies, Belgique (6449): Vitesse du vent & gusts: 20.05.2018 23:00:00 - 26.05.2018 23:00:00 (CEST)Charleroi/Gosselies, Belgique (6449): Direction du vent: 20.05.2018 23:00:00 - 26.05.2018 23:00:00 (CEST)Charleroi/Gosselies, Belgique (6449): reduced air pressure: 20.05.2018 23:00:00 - 26.05.2018 23:00:00 (CEST)Charleroi/Gosselies, Belgique (6449): visibility: 20.05.2018 23:00:00 - 26.05.2018 23:00:00 (CEST)
Date & Time tt [°C] td [°C] ff [km/h] ff [knt] fx [km/h] fx [knt] dd ppp [hPa] vv [km]
26.05.2018 23:00:00 22,7 15,6 9 5 - - E 1017,7 10
26.05.2018 22:00:00 24,1 15,5 15 8 29 16 ENE 1017,4 10
26.05.2018 21:00:00 26,0 15,4 15 8 18 10 ENE 1016,7 10
26.05.2018 20:00:00 27,1 13,6 11 6 - - ESE 1016,9 10
26.05.2018 19:00:00 27,4 14,1 15 8 32 18 E 1016,9 10
26.05.2018 18:00:00 27,3 13,7 15 8 32 18 SE 1017,1 10
26.05.2018 17:00:00 27,7 14,0 15 8 - - E 1017,2 10
26.05.2018 16:00:00 27,7 13,1 8 4 32 18 - 1017,7 10
26.05.2018 15:00:00 27,7 14,3 15 8 32 18 ESE 1018,0 10
26.05.2018 14:00:00 26,7 11,2 16 9 - - ESE 1018,4 10
26.05.2018 13:00:00 26,0 12,7 16 9 25 14 E 1018,5 10
26.05.2018 12:00:00 24,9 14,6 15 8 25 14 E 1018,3 10
26.05.2018 11:00:00 24,0 14,1 13 7 - - E 1018,4 10
26.05.2018 10:00:00 22,0 15,0 9 5 22 12 ESE 1018,5 10
26.05.2018 09:00:00 19,7 14,6 13 7 18 10 ESE 1018,4 6
26.05.2018 08:00:00 17,7 15,2 8 4 - - ENE 1018,6 2,0
26.05.2018 07:00:00 15,4 14,7 0 0 7 4 N 1018,9 2,0
26.05.2018 06:00:00 15,6 14,5 2 1 11 6 - 1018,3 2,5
26.05.2018 05:00:00 15,9 14,9 8 4 - - ENE 1018,1 5
26.05.2018 04:00:00 16,0 15,0 9 5 14 8 NE 1018,0 7
26.05.2018 03:00:00 16,4 15,3 8 4 11 6 NE 1018,3 10
26.05.2018 02:00:00 17,2 15,8 8 4 - - ENE 1018,5 10
26.05.2018 01:00:00 17,2 15,5 8 4 14 8 NNE 1018,5 10
26.05.2018 00:00:00 18,4 15,4 9 5 14 8 NNE 1018,2 10
25.05.2018 23:00:00 19,6 14,2 8 4 - - NNE 1018,0 10
25.05.2018 22:00:00 19,8 14,6 11 6 18 10 NE 1017,8 10
25.05.2018 21:00:00 21,7 14,1 9 5 14 8 NNE 1017,2 10
25.05.2018 20:00:00 22,7 14,2 9 5 - - NNE 1017,0 10
25.05.2018 19:00:00 23,9 13,2 9 5 14 8 NNE 1016,9 10
25.05.2018 18:00:00 23,5 13,3 8 4 18 10 NNW 1017,1 10
25.05.2018 17:00:00 22,8 13,1 8 4 - - NNW 1017,6 10
25.05.2018 16:00:00 22,7 14,3 11 6 22 12 N 1017,6 15
25.05.2018 15:00:00 23,7 12,4 9 5 22 12 N 1017,5 10
25.05.2018 14:00:00 23,8 12,9 5 3 - - - 1017,5 10
25.05.2018 13:00:00 22,8 14,2 5 3 14 8 SW 1017,8 10
25.05.2018 12:00:00 21,0 13,7 4 2 11 6 - 1018,0 10
25.05.2018 11:00:00 20,6 15,4 4 2 - - - 1017,8 10
25.05.2018 10:00:00 18,9 15,5 5 3 11 6 SW 1018,0 10
25.05.2018 09:00:00 17,0 14,6 8 4 11 6 S 1018,2 10
25.05.2018 08:00:00 14,5 13,6 4 2 - - S 1017,9 7
25.05.2018 07:00:00 13,4 12,8 4 2 7 4 - 1017,9 4,0
25.05.2018 06:00:00 12,7 12,1 4 2 4 2 ENE 1017,5 5
25.05.2018 05:00:00 12,9 12,3 2 1 - - - 1017,2 10
25.05.2018 04:00:00 13,1 12,3 5 3 7 4 SSE 1017,0 10
25.05.2018 03:00:00 14,0 12,6 2 1 7 4 - 1017,2 10
25.05.2018 02:00:00 13,9 12,2 4 2 - - - 1017,2 10
25.05.2018 01:00:00 13,5 12,5 4 2 14 8 SE 1017,6 10
25.05.2018 00:00:00 15,3 13,0 7 4 32 18 WNW 1017,5 10
24.05.2018 23:00:00 17,0 15,9 9 5 - - SSW 1017,3 10
24.05.2018 22:00:00 17,3 16,1 4 2 11 6 - 1016,7 10
24.05.2018 21:00:00 17,5 16,2 9 5 14 8 ENE 1016,2 10
24.05.2018 20:00:00 18,2 14,7 2 1 - - - 1016,2 10
24.05.2018 19:00:00 19,0 16,2 8 4 11 6 NNW 1015,9 10
24.05.2018 18:00:00 16,8 14,3 7 4 18 10 W 1016,6 15
24.05.2018 17:00:00 16,4 13,9 13 7 - - N 1016,9 10
24.05.2018 16:00:00 21,8 13,6 4 2 18 10 - 1015,8 10
24.05.2018 15:00:00 21,9 13,5 9 5 22 12 E 1016,3 10
24.05.2018 14:00:00 22,0 14,0 11 6 - - ENE 1017,0 10
24.05.2018 13:00:00 21,3 13,0 8 4 18 10 ESE 1017,4 10
24.05.2018 12:00:00 20,2 14,4 8 4 18 10 ESE 1017,9 10
24.05.2018 11:00:00 19,3 14,4 8 4 - - SE 1018,0 10
24.05.2018 10:00:00 17,6 13,8 11 6 18 10 E 1018,4 9
24.05.2018 09:00:00 15,8 13,8 13 7 18 10 ENE 1018,8 8
24.05.2018 08:00:00 15,6 13,8 11 6 - - ENE 1018,7 7
24.05.2018 07:00:00 14,0 13,3 4 2 7 4 - 1019,0 4,0
24.05.2018 06:00:00 13,5 12,9 4 2 11 6 E 1019,0 4,0
24.05.2018 05:00:00 13,4 12,9 8 4 - - NNE 1019,2 6
24.05.2018 04:00:00 13,8 13,1 8 4 11 6 NE 1019,4 8
24.05.2018 03:00:00 14,4 13,4 9 5 11 6 N 1019,4 10
24.05.2018 02:00:00 14,4 13,8 5 3 - - NE 1019,8 8
24.05.2018 01:00:00 14,7 13,6 2 1 18 10 - 1020,1 10
24.05.2018 00:00:00 14,4 13,3 9 5 32 18 SSE 1020,6 9
23.05.2018 23:00:00 15,5 14,6 15 8 - - SSW 1020,5 2,2
23.05.2018 22:00:00 18,6 13,3 5 3 7 4 NNW 1019,2 10
23.05.2018 21:00:00 19,0 12,0 2 1 - - - - 10
23.05.2018 20:00:00 19,5 12,2 8 4 - - SE 1018,7 10
23.05.2018 19:00:00 20,2 13,3 13 7 25 14 ENE 1018,3 10
23.05.2018 18:00:00 20,8 12,9 16 9 32 18 E 1018,5 10
23.05.2018 17:00:00 22,4 12,8 22 12 - - NE 1017,9 10
23.05.2018 16:00:00 20,7 13,4 18 10 29 16 ENE 1018,2 9
23.05.2018 15:00:00 21,9 13,8 15 8 25 14 ENE 1018,8 8
23.05.2018 14:00:00 19,4 14,0 16 9 - - NE 1019,1 6
23.05.2018 13:00:00 18,5 14,1 9 5 22 12 ENE 1019,5 6
23.05.2018 12:00:00 16,8 13,7 16 9 22 12 NE 1019,4 8
23.05.2018 11:00:00 16,8 13,8 14 8 - - NNE 1019,1 9
23.05.2018 10:00:00 16,1 13,4 16 9 22 12 NNE 1019,0 8
23.05.2018 09:00:00 15,3 13,4 11 6 18 10 NNE 1018,7 4,0
23.05.2018 08:00:00 14,5 13,1 8 4 - - N 1018,3 3,5
23.05.2018 07:00:00 14,3 12,7 5 3 11 6 N 1017,7 4,5
23.05.2018 06:00:00 13,8 12,7 8 4 14 8 NNE 1017,3 5
23.05.2018 05:00:00 13,7 12,4 9 5 - - NE 1017,0 6
23.05.2018 04:00:00 13,9 12,2 8 4 11 6 N 1016,9 9
23.05.2018 03:00:00 14,1 11,9 8 4 11 6 N 1016,6 10
23.05.2018 02:00:00 14,1 11,8 4 2 - - NNW 1016,4 15
23.05.2018 01:00:00 13,8 12,2 4 2 18 10 - 1016,5 10
23.05.2018 00:00:00 14,1 12,4 11 6 18 10 NNE 1016,3 10
22.05.2018 23:00:00 15,6 12,6 9 5 - - N 1015,7 10
22.05.2018 22:00:00 16,4 12,6 11 6 14 8 ENE 1014,7 10
22.05.2018 21:00:00 16,7 12,5 9 5 14 8 WSW 1014,4 10
22.05.2018 20:00:00 17,7 11,9 11 6 - - ENE 1014,2 10
22.05.2018 19:00:00 18,4 10,9 16 9 50 27 ENE 1014,0 10
22.05.2018 18:00:00 21,2 12,0 9 5 25 14 NE 1012,3 10
22.05.2018 17:00:00 22,1 11,0 5 3 - - NNE 1012,1 10
22.05.2018 16:00:00 21,1 12,0 9 5 14 8 WNW 1012,5 10
22.05.2018 15:00:00 21,5 12,4 8 4 22 12 W 1012,6 10
22.05.2018 14:00:00 21,2 13,3 13 7 - - WSW 1012,8 10
22.05.2018 13:00:00 21,7 12,9 8 4 18 10 S 1012,7 10
22.05.2018 12:00:00 20,4 12,7 8 4 14 8 WNW 1012,8 10
22.05.2018 11:00:00 19,5 13,9 5 3 - - WNW 1012,7 10
22.05.2018 10:00:00 18,5 14,1 8 4 14 8 W 1012,7 10
22.05.2018 09:00:00 16,9 13,5 8 4 11 6 WSW 1012,5 10
22.05.2018 08:00:00 14,3 12,3 9 5 - - SW 1012,5 10
22.05.2018 07:00:00 13,4 12,2 8 4 11 6 SW 1012,3 9
22.05.2018 06:00:00 12,9 11,9 4 2 7 4 - 1011,9 6
22.05.2018 05:00:00 12,8 11,9 2 1 - - - 1011,9 10
22.05.2018 04:00:00 13,0 12,1 5 3 11 6 SW 1011,9 10
22.05.2018 03:00:00 14,2 12,8 8 4 7 4 SSW 1011,9 10
22.05.2018 02:00:00 14,6 13,5 5 3 - - S 1011,9 10
22.05.2018 01:00:00 15,1 13,3 5 3 11 6 S 1012,2 10
22.05.2018 00:00:00 16,7 13,6 2 1 7 4 - 1012,1 10
21.05.2018 23:00:00 17,6 14,3 4 2 - - - 1012,1 10
21.05.2018 22:00:00 17,8 14,9 5 3 14 8 WNW 1011,9 10
21.05.2018 21:00:00 19,6 14,8 4 2 11 6 - 1011,6 10
21.05.2018 20:00:00 20,2 11,2 8 4 - - WSW 1011,2 10
21.05.2018 19:00:00 21,3 12,2 5 3 18 10 E 1011,4 10
21.05.2018 18:00:00 22,4 12,3 11 6 22 12 N 1011,3 10
21.05.2018 17:00:00 20,9 12,4 15 8 - - NE 1012,0 10
21.05.2018 16:00:00 20,5 12,3 13 7 29 16 ENE 1012,5 10
21.05.2018 15:00:00 21,1 11,4 13 7 29 16 ENE 1013,0 10
21.05.2018 14:00:00 20,9 12,1 14 8 - - NE 1013,3 20
21.05.2018 13:00:00 19,5 11,2 9 5 22 12 NE 1014,0 10
21.05.2018 12:00:00 18,2 10,2 15 8 29 16 ENE 1014,3 10
21.05.2018 11:00:00 17,8 9,8 16 9 - - E 1014,8 10
21.05.2018 10:00:00 16,5 10,4 14 8 25 14 ENE 1015,3 20
21.05.2018 09:00:00 14,3 10,9 13 7 22 12 ENE 1015,8 10
21.05.2018 08:00:00 13,8 11,2 13 7 - - ENE 1016,1 10
21.05.2018 07:00:00 12,8 11,0 15 8 22 12 NE 1016,1 10
21.05.2018 06:00:00 12,8 11,1 11 6 18 10 NE 1016,6 10
21.05.2018 05:00:00 12,7 11,1 13 7 - - E 1017,2 10
21.05.2018 04:00:00 12,7 11,3 8 4 14 8 ENE 1017,4 10
21.05.2018 03:00:00 13,1 10,9 9 5 32 18 ENE 1017,7 10
21.05.2018 02:00:00 13,4 10,7 21 11 - - ESE 1018,8 10
21.05.2018 01:00:00 13,8 10,8 11 6 18 10 E 1019,2 10
21.05.2018 00:00:00 13,7 11,3 13 7 18 10 NE 1019,3 10
20.05.2018 23:00:00 13,8 11,8 8 4 - - NE 1019,0 10

tt = Température de l'air
td = dewpoint
ff = Vitesse du vent
fx = gusts
dd = Direction du vent
ppp = reduced air pressure
vv = visibility

stations d'obs. à proximité